ONEWEB-0045 (45151 NORAD) Tracking and Keplerian Element Data

This shows tracking and keplerian element data for the satellite.

Feedback or suggestion? Click here.




ElementValue
Catalog45151
NameONEWEB-0045
Epoch Orbit4027
Epoch Day304.91667824
Epoch Year2020
RAAN79.4827
Inclination87.4533
Eccentricity0.0019092
Argument of Perigee85.212
Mean Anonmoly88.3357
Mean Motion14.69931731
Decay Rate-0.0002251
L11 45151U 20008W 20304.91667824 -.00022510 00000-0 -37712-2 0 9992
L22 45151 87.4533 79.4827 0019092 85.2120 88.3357 14.69931731 40275

Live tracking and technical data element details for ONEWEB-0045 (NORAD 45151). ONEWEB-0045 can be tracked NOW for your location showing map with azimuth and elevation plus other details from your city location.

Track the satellite on the map from your city or location and see movement details for azimuth, elevation, latitude, longitude, range, height, and movement on the map or in text.







IsCatalogInMostPopularTable: catalog: 45151, numindb: 57
Update: records affected: 1



GetName: 45151 ONEWEB-0045

Hit Count: updated at: Sat, 31 Oct 2020 14:18:29 GMT